"Platform","Saginaw Bay ReCON Buoy"
"NDBC ID","45163"
"Latitude (deg)",43.9859
"Longitude (deg)",-83.5953
"Water Depth (m)",13.5
"Sensor Device","System Power Controller board voltage input"
"Sensor Type","Voltage at underwater hub"
"Sensor Units","voltage"
"Measurement","A sample"
"Time means","Time at sample (UTC time zone)"

"Note:","This data was collected for research purposes."
"Note:","Minimal quality checking has been performed so data may contain known or unknown errors."
"Note:","Data provided by NOAA. Please credit NOAA."
"Note:","For more info see www.glerl.noaa.gov/res/recon"

"Time (UTC)","U/W Hub"
"YYYY/MM/DD HH:MM","volts"
2017/05/03 18:17, 47.85
2017/05/03 18:37, 46.68
2017/05/03 18:57, 47.60
2017/05/03 19:17, 47.95
2017/05/03 19:37, 46.08
2017/05/03 19:57, 47.70
2017/05/03 20:17, 48.22
2017/05/03 20:37, 46.18
2017/05/03 20:57, 45.70
2017/05/03 21:17, 45.96
2017/05/03 21:37, 46.63
2017/05/03 21:57, 46.21
2017/05/03 22:17, 46.89
2017/05/03 22:37, 46.05
2017/05/03 22:57, 46.37
2017/05/03 23:17, 47.31
2017/05/03 23:37, 48.64
2017/05/03 23:57, 50.06
2017/05/04 00:17, 50.06
2017/05/04 00:37, 50.06
2017/05/04 00:57, 50.06
2017/05/04 01:17, 50.06
2017/05/04 01:37, 50.06
2017/05/04 01:57, 50.07
2017/05/04 02:17, 50.07
2017/05/04 02:37, 50.07
2017/05/04 02:57, 50.07
2017/05/04 03:17, 50.08
2017/05/04 03:37, 50.07
2017/05/04 03:57, 50.08
2017/05/04 04:17, 50.08
2017/05/04 04:37, 50.08
2017/05/04 04:57, 50.07
2017/05/04 05:17, 50.07
2017/05/04 05:37, 50.08
2017/05/04 05:57, 50.08
2017/05/04 06:17, 50.08
2017/05/04 06:37, 50.08
2017/05/04 06:57, 50.08
2017/05/04 07:17, 50.07
2017/05/04 07:37, 50.08
2017/05/04 07:57, 50.08
2017/05/04 08:17, 50.08
2017/05/04 08:37, 50.07
2017/05/04 08:57, 50.08
2017/05/04 09:17, 50.08
2017/05/04 09:37, 50.08
2017/05/04 09:57, 50.08
2017/05/04 10:17, 50.07
2017/05/04 10:37, 50.07
2017/05/04 10:57, 50.08
2017/05/04 11:17, 50.08
2017/05/04 11:37, 50.07
2017/05/04 11:57, 50.08
2017/05/04 12:17, 50.09
2017/05/04 12:37, 50.09
2017/05/04 12:57, 50.10
2017/05/04 13:17, 50.11
2017/05/04 13:37, 50.10
2017/05/04 13:57, 50.10
2017/05/04 14:17, 50.09
2017/05/04 14:37, 50.11
2017/05/04 14:57, 50.12
2017/05/04 15:17, 50.11
2017/05/04 15:37, 50.12
2017/05/04 15:57, 49.89
2017/05/04 16:17, 49.59
2017/05/04 16:37, 49.49
2017/05/04 16:57, 49.82
2017/05/04 17:17, 49.83
2017/05/04 17:37, 49.84
2017/05/04 17:57, 49.57
2017/05/04 18:17, 49.62
2017/05/04 18:37, 49.72
2017/05/04 18:57, 50.05
2017/05/04 19:17, 50.03
2017/05/04 19:37, 50.12
2017/05/04 19:57, 50.12
2017/05/04 20:17, 50.13
2017/05/04 20:37, 50.12
2017/05/04 20:57, 50.12
2017/05/04 21:17, 50.10
2017/05/04 21:37, 50.11
2017/05/04 21:57, 50.09
2017/05/04 22:17, 50.09
2017/05/04 22:37, 50.08
2017/05/04 22:57, 50.08
2017/05/04 23:17, 50.08
2017/05/04 23:37, 50.08
2017/05/04 23:57, 50.08
2017/05/05 00:17, 50.08
2017/05/05 00:37, 50.08
2017/05/05 00:57, 50.08
2017/05/05 01:17, 50.08
2017/05/05 01:37, 50.09
2017/05/05 01:57, 50.08
2017/05/05 02:17, 50.09
2017/05/05 02:37, 50.09
2017/05/05 02:57, 50.09
2017/05/05 03:17, 50.08
2017/05/05 03:37, 50.08
2017/05/05 03:57, 50.08
2017/05/05 04:17, 50.08
2017/05/05 04:37, 50.08
2017/05/05 04:57, 50.08
2017/05/05 05:17, 50.08
2017/05/05 05:37, 50.08
2017/05/05 05:57, 50.08
2017/05/05 06:17, 50.08
2017/05/05 06:37, 50.09
2017/05/05 06:57, 50.08
2017/05/05 07:17, 50.08
2017/05/05 07:37, 50.09
2017/05/05 07:57, 50.08
2017/05/05 08:17, 50.08
2017/05/05 08:37, 50.08
2017/05/05 08:57, 50.08
2017/05/05 09:17, 50.08
2017/05/05 09:37, 50.08
2017/05/05 09:57, 50.09
2017/05/05 10:17, 50.09
2017/05/05 10:37, 50.08
2017/05/05 10:57, 50.08
2017/05/05 11:17, 50.09
2017/05/05 11:37, 50.10
2017/05/05 11:57, 50.10
2017/05/05 12:17, 50.11
2017/05/05 12:37, 50.12
2017/05/05 12:57, 50.10
2017/05/05 13:17, 47.95
2017/05/05 13:37, 47.58
2017/05/05 13:57, 48.53
2017/05/05 14:17, 45.72
2017/05/05 14:37, 47.84
2017/05/05 14:57, 47.70
2017/05/05 15:17, 48.21
2017/05/05 15:37, 47.81
2017/05/05 15:57, 47.35
2017/05/05 16:17, 48.68
2017/05/05 16:37, 48.45
2017/05/05 16:57, 48.36
2017/05/05 17:17, 47.35
2017/05/05 17:37, 47.13
2017/05/05 17:57, 46.72
2017/05/05 18:17, 48.85
2017/05/05 18:37, 48.98
2017/05/05 18:57, 48.65
2017/05/05 19:17, 47.46
2017/05/05 19:37, 47.90
2017/05/05 19:57, 48.78
2017/05/05 20:17, 48.87
2017/05/05 20:37, 48.50
2017/05/05 20:57, 48.18
2017/05/05 21:17, 49.25
2017/05/05 21:37, 49.04
2017/05/05 21:57, 49.79
2017/05/05 22:17, 49.99
2017/05/05 22:37, 50.05
2017/05/05 22:57, 49.85
2017/05/05 23:17, 50.10
2017/05/05 23:37, 50.07
2017/05/05 23:57, 49.96
2017/05/06 00:17, 50.08
2017/05/06 00:37, 50.08
2017/05/06 00:57, 50.07
2017/05/06 01:17, 50.08
2017/05/06 01:37, 50.07
2017/05/06 01:57, 50.07
2017/05/06 02:17, 50.07
2017/05/06 02:37, 50.07
2017/05/06 02:57, 50.08
2017/05/06 03:17, 50.07
2017/05/06 03:37, 50.07
2017/05/06 03:57, 50.06
2017/05/06 04:17, 50.07
2017/05/06 04:37, 50.07
2017/05/06 04:57, 50.07
2017/05/06 05:17, 50.07
2017/05/06 05:37, 50.07
2017/05/06 05:57, 50.07
2017/05/06 06:17, 50.08
2017/05/06 06:37, 50.07
2017/05/06 06:57, 50.07
2017/05/06 07:17, 50.07
2017/05/06 07:37, 50.08
2017/05/06 07:57, 50.08
2017/05/06 08:17, 50.08
2017/05/06 08:37, 50.08
2017/05/06 08:57, 50.08
2017/05/06 09:17, 50.08
2017/05/06 09:37, 50.09
2017/05/06 09:57, 50.08
2017/05/06 10:17, 50.08
2017/05/06 10:37, 50.08
2017/05/06 10:57, 50.09
2017/05/06 11:17, 50.10
2017/05/06 11:37, 48.27
2017/05/06 11:57, 46.55
2017/05/06 12:17, 46.37
2017/05/06 12:37, 48.72
2017/05/06 12:57, 46.84
2017/05/06 13:17, 47.08
2017/05/06 13:37, 46.01
2017/05/06 13:57, 47.16
2017/05/06 14:17, 47.17
2017/05/06 14:37, 46.71
2017/05/06 14:57, 47.18
2017/05/06 15:17, 48.65
2017/05/06 15:37, 47.77
2017/05/06 15:57, 47.89
2017/05/06 16:17, 49.16
2017/05/06 16:37, 47.12
2017/05/06 16:57, 48.74
2017/05/06 17:17, 49.50
2017/05/06 17:37, 47.90
2017/05/06 17:57, 49.11
2017/05/06 18:17, 49.65
2017/05/06 18:37, 49.45
2017/05/06 18:57, 49.73
2017/05/06 19:17, 47.20
2017/05/06 19:37, 46.58
2017/05/06 19:57, 49.78
2017/05/06 20:17, 48.72
2017/05/06 20:37, 47.49
2017/05/06 20:57, 49.98
2017/05/06 21:17, 49.89
2017/05/06 21:37, 49.93
2017/05/06 21:57, 50.04
2017/05/06 22:17, 49.87
2017/05/06 22:37, 49.71
2017/05/06 22:57, 49.90
2017/05/06 23:17, 49.88
2017/05/06 23:37, 50.01
2017/05/06 23:57, 49.98
2017/05/07 00:17, 50.01
2017/05/07 00:37, 50.07
2017/05/07 00:57, 50.06
2017/05/07 01:17, 50.04
2017/05/07 01:37, 50.07
2017/05/07 01:57, 50.06
2017/05/07 02:17, 50.06
2017/05/07 02:37, 50.06
2017/05/07 02:57, 50.07
2017/05/07 03:17, 50.07
2017/05/07 03:37, 50.07
2017/05/07 03:57, 50.07
2017/05/07 04:17, 50.07
2017/05/07 04:37, 50.08
2017/05/07 04:57, 50.08
2017/05/07 05:17, 50.08
2017/05/07 05:37, 50.07
2017/05/07 05:57, 50.07
2017/05/07 06:17, 50.07
2017/05/07 06:37, 50.07
2017/05/07 06:57, 50.07
2017/05/07 07:17, 50.08
2017/05/07 07:37, 50.09
2017/05/07 07:57, 50.08
2017/05/07 08:17, 50.08
2017/05/07 08:37, 50.09
2017/05/07 08:57, 50.08
2017/05/07 09:17, 50.08
2017/05/07 09:37, 50.09
2017/05/07 09:57, 50.08
2017/05/07 10:17, 50.08
2017/05/07 10:37, 50.12
2017/05/07 10:57, 49.80
2017/05/07 11:17, 47.59
2017/05/07 11:37, 46.90
2017/05/07 11:57, 46.90
2017/05/07 12:17, 46.21
2017/05/07 12:37, 45.99
2017/05/07 12:57, 46.14
2017/05/07 13:17, 46.21
2017/05/07 13:37, 46.70
2017/05/07 13:57, 46.69
2017/05/07 14:17, 46.90
2017/05/07 14:37, 46.60
2017/05/07 14:57, 47.08
2017/05/07 15:17, 47.50
2017/05/07 15:37, 47.68
2017/05/07 15:57, 48.83
2017/05/07 16:17, 49.46
2017/05/07 16:37, 49.43
2017/05/07 16:57, 49.59
2017/05/07 17:17, 49.10
2017/05/07 17:37, 49.35
2017/05/07 17:57, 49.61
2017/05/07 18:17, 49.53
2017/05/07 18:37, 49.70
2017/05/07 18:57, 49.76
2017/05/07 19:17, 49.93
2017/05/07 19:37, 49.57
2017/05/07 19:57, 49.51
2017/05/07 20:17, 49.60
2017/05/07 20:37, 49.62
2017/05/07 20:57, 49.72
2017/05/07 21:17, 49.84
2017/05/07 21:37, 49.65
2017/05/07 21:57, 49.68
2017/05/07 22:17, 49.55
2017/05/07 22:37, 49.76
2017/05/07 22:57, 49.73
2017/05/07 23:17, 49.36
2017/05/07 23:37, 49.55
2017/05/07 23:57, 49.75
2017/05/08 00:17, 49.95
2017/05/08 00:37, 50.10
2017/05/08 00:57, 50.07
2017/05/08 01:17, 50.07
2017/05/08 01:37, 50.08
2017/05/08 01:57, 50.07
2017/05/08 02:17, 50.06
2017/05/08 02:37, 50.08
2017/05/08 02:57, 50.07
2017/05/08 03:17, 50.08
2017/05/08 03:37, 50.08
2017/05/08 03:57, 50.08
2017/05/08 04:17, 50.08
2017/05/08 04:37, 50.08
2017/05/08 04:57, 50.08
2017/05/08 05:17, 50.09
2017/05/08 05:37, 50.08
2017/05/08 05:57, 50.09
2017/05/08 06:17, 50.08
2017/05/08 06:37, 50.09
2017/05/08 06:57, 50.08
2017/05/08 07:17, 50.09
2017/05/08 07:37, 50.08
2017/05/08 07:57, 50.09
2017/05/08 08:17, 50.08
2017/05/08 08:37, 50.09
2017/05/08 08:57, 50.08
2017/05/08 09:17, 50.09
2017/05/08 09:37, 50.10
2017/05/08 09:57, 50.10
2017/05/08 10:17, 50.09
2017/05/08 10:37, 50.14
2017/05/08 10:57, 49.54
2017/05/08 11:17, 47.17
2017/05/08 11:37, 46.44
2017/05/08 11:57, 45.72
2017/05/08 12:17, 45.69
2017/05/08 12:37, 45.81
2017/05/08 12:57, 46.35
2017/05/08 13:17, 46.45
2017/05/08 13:37, 46.54
2017/05/08 13:57, 47.24
2017/05/08 14:17, 46.84
2017/05/08 14:37, 47.18
2017/05/08 14:57, 47.54
2017/05/08 15:17, 48.14
2017/05/08 15:37, 48.03
2017/05/08 15:57, 48.02
2017/05/08 16:17, 49.53
2017/05/08 16:37, 48.80
2017/05/08 16:57, 49.58
2017/05/08 17:17, 49.58
2017/05/08 17:37, 49.52
2017/05/08 17:57, 49.60
2017/05/08 18:17, 49.62
2017/05/08 18:37, 49.43
2017/05/08 18:57, 49.56
2017/05/08 19:17, 49.55
2017/05/08 19:37, 49.55
2017/05/08 19:57, 49.60
2017/05/08 20:17, 49.61
2017/05/08 20:37, 49.59
2017/05/08 20:57, 49.75
2017/05/08 21:17, 49.75
2017/05/08 21:37, 49.92
2017/05/08 21:57, 49.63
2017/05/08 22:17, 49.73
2017/05/08 22:37, 49.77
2017/05/08 22:57, 49.79
2017/05/08 23:17, 49.91
2017/05/08 23:37, 49.93
2017/05/08 23:57, 49.97
2017/05/09 00:17, 50.00
2017/05/09 00:37, 50.07
2017/05/09 00:57, 50.07
2017/05/09 01:17, 50.06
2017/05/09 01:37, 50.08
2017/05/09 01:57, 50.06
2017/05/09 02:17, 50.07
2017/05/09 02:37, 50.07
2017/05/09 02:57, 50.07
2017/05/09 03:17, 50.07
2017/05/09 03:37, 50.08
2017/05/09 03:57, 50.07
2017/05/09 04:17, 50.07
2017/05/09 04:37, 50.07
2017/05/09 04:57, 50.07
2017/05/09 05:17, 50.07
2017/05/09 05:37, 50.07
2017/05/09 05:57, 50.08
2017/05/09 06:17, 50.08
2017/05/09 06:37, 50.08
2017/05/09 06:57, 50.08
2017/05/09 07:17, 50.08
2017/05/09 07:37, 50.08
2017/05/09 07:57, 50.07
2017/05/09 08:17, 50.09
2017/05/09 08:37, 50.09
2017/05/09 08:57, 50.07
2017/05/09 09:17, 50.07
2017/05/09 09:37, 50.09
2017/05/09 09:57, 50.08
2017/05/09 10:17, 50.08
2017/05/09 10:37, 50.14
2017/05/09 10:57, 49.56
2017/05/09 11:17, 47.15
2017/05/09 11:37, 46.44
2017/05/09 11:57, 46.27
2017/05/09 12:17, 46.05
2017/05/09 12:37, 46.20
2017/05/09 12:57, 46.45
2017/05/09 13:17, 46.28
2017/05/09 13:37, 46.59
2017/05/09 13:57, 46.41
2017/05/09 14:17, 46.76
2017/05/09 14:37, 46.93
2017/05/09 14:57, 46.31
2017/05/09 15:17, 47.19
2017/05/09 15:37, 48.45
2017/05/09 15:57, 47.15
2017/05/09 16:17, 47.44
2017/05/09 16:37, 47.64
2017/05/09 16:57, 48.19
2017/05/09 17:17, 49.61
2017/05/09 17:37, 47.24
2017/05/09 17:57, 49.32
2017/05/09 18:17, 49.43
2017/05/09 18:37, 49.62
2017/05/09 18:57, 49.78
2017/05/09 19:17, 49.92
2017/05/09 19:37, 49.82
2017/05/09 19:57, 49.86
2017/05/09 20:17, 49.92
2017/05/09 20:37, 49.94
2017/05/09 20:57, 49.98
2017/05/09 21:17, 49.86
2017/05/09 21:37, 49.88
2017/05/09 21:57, 50.01
2017/05/09 22:17, 49.72
2017/05/09 22:37, 50.05
2017/05/09 22:57, 50.09
2017/05/09 23:17, 50.08
2017/05/09 23:37, 50.06
2017/05/09 23:57, 50.06
2017/05/10 00:17, 50.07
2017/05/10 00:37, 50.07
2017/05/10 00:57, 50.07
2017/05/10 01:17, 50.06
2017/05/10 01:37, 50.06
2017/05/10 01:57, 50.08
2017/05/10 02:17, 50.06
2017/05/10 02:37, 50.05
2017/05/10 02:57, 50.06
2017/05/10 03:17, 50.06
2017/05/10 03:37, 50.07
2017/05/10 03:57, 50.06
2017/05/10 04:17, 50.07
2017/05/10 04:37, 50.06
2017/05/10 04:57, 50.06
2017/05/10 05:17, 50.05
2017/05/10 05:37, 50.06
2017/05/10 05:57, 50.07
2017/05/10 06:17, 50.06
2017/05/10 06:37, 50.07
2017/05/10 06:57, 50.07
2017/05/10 07:17, 50.07
2017/05/10 07:37, 50.06
2017/05/10 07:57, 50.08
2017/05/10 08:17, 50.07
2017/05/10 08:37, 50.07
2017/05/10 08:57, 50.07
2017/05/10 09:17, 50.07
2017/05/10 09:37, 50.07
2017/05/10 09:57, 50.07
2017/05/10 10:17, 50.07
2017/05/10 10:37, 50.07
2017/05/10 10:57, 50.07
2017/05/10 11:17, 50.07
2017/05/10 11:37, 50.08
2017/05/10 11:57, 50.08
2017/05/10 12:17, 50.07
2017/05/10 12:37, 50.08
2017/05/10 12:57, 50.08
2017/05/10 13:17, 50.10
2017/05/10 13:37, 50.10
2017/05/10 13:57, 50.10
2017/05/10 14:17, 50.11
2017/05/10 14:37, 49.91
2017/05/10 14:57, 49.14
2017/05/10 15:17, 47.30
2017/05/10 15:37, 47.16
2017/05/10 15:57, 46.59
2017/05/10 16:17, 47.58
2017/05/10 16:37, 47.10
2017/05/10 16:57, 46.99
2017/05/10 17:17, 47.25
2017/05/10 17:37, 47.40
2017/05/10 17:57, 47.42
2017/05/10 18:17, 48.35
2017/05/10 18:37, 47.32
2017/05/10 18:57, 48.01
2017/05/10 19:17, 47.85
2017/05/10 19:37, 49.01
2017/05/10 19:57, 48.90
2017/05/10 20:17, 48.98
2017/05/10 20:37, 48.05
2017/05/10 20:57, 47.18
2017/05/10 21:17, 49.73
2017/05/10 21:37, 50.04
2017/05/10 21:57, 50.06
2017/05/10 22:17, 50.08
2017/05/10 22:37, 50.08
2017/05/10 22:57, 50.10
2017/05/10 23:17, 50.08
2017/05/10 23:37, 50.10
2017/05/10 23:57, 50.06
2017/05/11 00:17, 50.06
2017/05/11 00:37, 50.06
2017/05/11 00:57, 50.06
2017/05/11 01:17, 50.06
2017/05/11 01:37, 50.06
2017/05/11 01:57, 50.07
2017/05/11 02:17, 50.05
2017/05/11 02:37, 50.06
2017/05/11 02:57, 50.06
2017/05/11 03:17, 50.06
2017/05/11 03:37, 50.06
2017/05/11 03:57, 50.07
2017/05/11 04:17, 50.06
2017/05/11 04:37, 50.05
2017/05/11 04:57, 50.06
2017/05/11 05:17, 50.06
2017/05/11 05:37, 50.07
2017/05/11 05:57, 50.08
2017/05/11 06:17, 50.07
2017/05/11 06:37, 50.08
2017/05/11 06:57, 50.07
2017/05/11 07:17, 50.05
2017/05/11 07:37, 50.07
2017/05/11 07:57, 50.07
2017/05/11 08:17, 50.06
2017/05/11 08:37, 50.05
2017/05/11 08:57, 50.06
2017/05/11 09:17, 50.05
2017/05/11 09:37, 50.07
2017/05/11 09:57, 50.07
2017/05/11 10:17, 50.07
2017/05/11 10:37, 50.07
2017/05/11 10:57, 50.08
2017/05/11 11:17, 50.07
2017/05/11 11:37, 50.07
2017/05/11 11:57, 50.07
2017/05/11 12:17, 50.07
2017/05/11 12:37, 50.08
2017/05/11 12:57, 50.10
2017/05/11 13:17, 50.11
2017/05/11 13:37, 49.74
2017/05/11 13:57, 49.55
2017/05/11 14:17, 48.98
2017/05/11 14:37, 47.15
2017/05/11 14:57, 48.37
2017/05/11 15:17, 46.77
2017/05/11 15:37, 47.14
2017/05/11 15:57, 47.72
2017/05/11 16:17, 47.86
2017/05/11 16:37, 48.16
2017/05/11 16:57, 47.92
2017/05/11 17:17, 48.81
2017/05/11 17:37, 48.65
2017/05/11 17:57, 49.19
2017/05/11 18:17, 49.61
2017/05/11 18:37, 48.18
2017/05/11 18:57, 48.51
2017/05/11 19:17, 48.65
2017/05/11 19:37, 47.78
2017/05/11 19:57, 49.29
2017/05/11 20:17, 49.79
2017/05/11 20:37, 47.85
2017/05/11 20:57, 47.98
2017/05/11 21:17, 49.42
2017/05/11 21:37, 47.95
2017/05/11 21:57, 49.87
2017/05/11 22:17, 49.47
2017/05/11 22:37, 49.58
2017/05/11 22:57, 49.71
2017/05/11 23:17, 49.85
2017/05/11 23:37, 49.74
2017/05/11 23:57, 49.86
2017/05/12 00:17, 49.98
2017/05/12 00:37, 50.07
2017/05/12 00:57, 50.07
2017/05/12 01:17, 50.07
2017/05/12 01:37, 50.07
2017/05/12 01:57, 50.06
2017/05/12 02:17, 50.06
2017/05/12 02:37, 50.06
2017/05/12 02:57, 50.06
2017/05/12 03:17, 50.05
2017/05/12 03:37, 50.06
2017/05/12 03:57, 50.06
2017/05/12 04:17, 50.06
2017/05/12 04:37, 50.06
2017/05/12 04:57, 50.07
2017/05/12 05:17, 50.06
2017/05/12 05:37, 50.06
2017/05/12 05:57, 50.07
2017/05/12 06:17, 50.06
2017/05/12 06:37, 50.06
2017/05/12 06:57, 50.07
2017/05/12 07:17, 50.06
2017/05/12 07:37, 50.07
2017/05/12 07:57, 50.06
2017/05/12 08:17, 50.06
2017/05/12 08:37, 50.07
2017/05/12 08:57, 50.07
2017/05/12 09:17, 50.07
2017/05/12 09:37, 50.08
2017/05/12 09:57, 50.07
2017/05/12 10:17, 50.07
2017/05/12 10:37, 50.11
2017/05/12 10:57, 49.83
2017/05/12 11:17, 48.83
2017/05/12 11:37, 47.80
2017/05/12 11:57, 47.17
2017/05/12 12:17, 47.07
2017/05/12 12:37, 47.17
2017/05/12 12:57, 47.14
2017/05/12 13:17, 47.40
2017/05/12 13:37, 47.75
2017/05/12 13:57, 47.30
2017/05/12 14:17, 47.30
2017/05/12 14:37, 47.52
2017/05/12 14:57, 47.73
2017/05/12 15:17, 48.11
2017/05/12 15:37, 48.55
2017/05/12 15:57, 49.14
2017/05/12 16:17, 49.40
2017/05/12 16:37, 49.64
2017/05/12 16:57, 49.77
2017/05/12 17:17, 48.12
2017/05/12 17:37, 49.93
2017/05/12 17:57, 49.95
2017/05/12 18:17, 49.88
2017/05/12 18:37, 49.96
2017/05/12 18:57, 49.96
2017/05/12 19:17, 49.95
2017/05/12 19:37, 49.93
2017/05/12 19:57, 49.92
2017/05/12 20:17, 49.91
2017/05/12 20:37, 49.88
2017/05/12 20:57, 49.90
2017/05/12 21:17, 49.91
2017/05/12 21:37, 49.91
2017/05/12 21:57, 49.90
2017/05/12 22:17, 49.86
2017/05/12 22:37, 49.87
2017/05/12 22:57, 50.04
2017/05/12 23:17, 50.06
2017/05/12 23:37, 50.00
2017/05/12 23:57, 49.95
2017/05/13 00:17, 49.99
2017/05/13 00:37, 50.07
2017/05/13 00:57, 50.04
2017/05/13 01:17, 50.05
2017/05/13 01:37, 50.06
2017/05/13 01:57, 50.05
2017/05/13 02:17, 50.06
2017/05/13 02:37, 50.05
2017/05/13 02:57, 50.05
2017/05/13 03:17, 50.05
2017/05/13 03:37, 50.06
2017/05/13 03:57, 50.06
2017/05/13 04:17, 50.06
2017/05/13 04:37, 50.07
2017/05/13 04:57, 50.06
2017/05/13 05:17, 50.04
2017/05/13 05:37, 50.04
2017/05/13 05:57, 50.04
2017/05/13 06:17, 50.08
2017/05/13 06:37, 50.05
2017/05/13 06:57, 50.06
2017/05/13 07:17, 50.05
2017/05/13 07:37, 50.05
2017/05/13 07:57, 50.06
2017/05/13 08:17, 50.05
2017/05/13 08:37, 50.07
2017/05/13 08:57, 50.07
2017/05/13 09:17, 50.07
2017/05/13 09:37, 50.07
2017/05/13 09:57, 50.07
2017/05/13 10:17, 50.07
2017/05/13 10:37, 50.10
2017/05/13 10:57, 48.99
2017/05/13 11:17, 48.32
2017/05/13 11:37, 47.98
2017/05/13 11:57, 48.18
2017/05/13 12:17, 46.53
2017/05/13 12:37, 49.85
2017/05/13 12:57, 50.07
2017/05/13 13:17, 49.92
2017/05/13 13:37, 50.08
2017/05/13 13:57, 50.10
2017/05/13 14:17, 49.79
2017/05/13 14:37, 48.55
2017/05/13 14:57, 48.07
2017/05/13 15:17, 47.09
2017/05/13 15:37, 49.59
2017/05/13 15:57, 49.79
2017/05/13 16:17, 50.07
2017/05/13 16:37, 50.09
2017/05/13 16:57, 50.06
2017/05/13 17:17, 49.90
2017/05/13 17:37, 49.96
2017/05/13 17:57, 49.91
2017/05/13 18:17, 49.92
2017/05/13 18:37, 49.99
2017/05/13 18:57, 50.07
2017/05/13 19:17, 50.10
2017/05/13 19:37, 50.09
2017/05/13 19:57, 49.98
2017/05/13 20:17, 49.97
2017/05/13 20:37, 49.74
2017/05/13 20:57, 49.78
2017/05/13 21:17, 49.96
2017/05/13 21:37, 49.86
2017/05/13 21:57, 49.87
2017/05/13 22:17, 49.83
2017/05/13 22:37, 50.06
2017/05/13 22:57, 50.06
2017/05/13 23:17, 50.06
2017/05/13 23:37, 50.05
2017/05/13 23:57, 50.04
2017/05/14 00:17, 50.05
2017/05/14 00:37, 50.07
2017/05/14 00:57, 50.04
2017/05/14 01:17, 50.06
2017/05/14 01:37, 50.06
2017/05/14 01:57, 50.04
2017/05/14 02:17, 50.06
2017/05/14 02:37, 50.05
2017/05/14 02:57, 50.06
2017/05/14 03:17, 50.06
2017/05/14 03:37, 50.05
2017/05/14 03:57, 50.05
2017/05/14 04:17, 50.04
2017/05/14 04:37, 50.05
2017/05/14 04:57, 50.07
2017/05/14 05:17, 50.06
2017/05/14 05:37, 50.06
2017/05/14 05:57, 50.05
2017/05/14 06:17, 50.03
2017/05/14 06:37, 50.05
2017/05/14 06:57, 50.04
2017/05/14 07:17, 50.04
2017/05/14 07:37, 50.04
2017/05/14 07:57, 50.05
2017/05/14 08:17, 50.06
2017/05/14 08:37, 50.07
2017/05/14 08:57, 50.07
2017/05/14 09:17, 50.05
2017/05/14 09:37, 50.06
2017/05/14 09:57, 50.06
2017/05/14 10:17, 50.07
2017/05/14 10:37, 50.09
2017/05/14 10:57, 50.07
2017/05/14 11:17, 50.07
2017/05/14 11:37, 50.07
2017/05/14 11:57, 50.07
2017/05/14 12:17, 50.06
2017/05/14 12:37, 50.07
2017/05/14 12:57, 50.07
2017/05/14 13:17, 50.07
2017/05/14 13:37, 50.09
2017/05/14 13:57, 50.08
2017/05/14 14:17, 50.09
2017/05/14 14:37, 50.10
2017/05/14 14:57, 50.08
2017/05/14 15:17, 50.10
2017/05/14 15:37, 49.79
2017/05/14 15:57, 48.40
2017/05/14 16:17, 48.15
2017/05/14 16:37, 47.32
2017/05/14 16:57, 47.71
2017/05/14 17:17, 48.72
2017/05/14 17:37, 48.91
2017/05/14 17:57, 48.17
2017/05/14 18:17, 47.50
2017/05/14 18:37, 49.34
2017/05/14 18:57, 47.04
2017/05/14 19:17, 47.71
2017/05/14 19:37, 47.87
2017/05/14 19:57, 47.57
2017/05/14 20:17, 47.33
2017/05/14 20:37, 48.08
2017/05/14 20:57, 48.14
2017/05/14 21:17, 49.22
2017/05/14 21:37, 47.90
2017/05/14 21:57, 49.27
2017/05/14 22:17, 49.21
2017/05/14 22:37, 49.40
2017/05/14 22:57, 49.58
2017/05/14 23:17, 49.74
2017/05/14 23:37, 49.71
2017/05/14 23:57, 49.95
2017/05/15 00:17, 49.95
2017/05/15 00:37, 50.04
2017/05/15 00:57, 50.05
2017/05/15 01:17, 50.04
2017/05/15 01:37, 50.04
2017/05/15 01:57, 50.05
2017/05/15 02:17, 50.06
2017/05/15 02:37, 50.05
2017/05/15 02:57, 50.04
2017/05/15 03:17, 50.04
2017/05/15 03:37, 50.04
2017/05/15 03:57, 50.05
2017/05/15 04:17, 50.05
2017/05/15 04:37, 50.06
2017/05/15 04:57, 50.35
2017/05/15 05:17, 50.06
2017/05/15 05:37, 50.05
2017/05/15 05:57, 50.06
2017/05/15 06:17, 50.06
2017/05/15 06:37, 50.06
2017/05/15 06:57, 50.06
2017/05/15 07:17, 50.07
2017/05/15 07:37, 50.05
2017/05/15 07:57, 50.06
2017/05/15 08:17, 50.07
2017/05/15 08:37, 50.07
2017/05/15 08:57, 50.07
2017/05/15 09:17, 50.07
2017/05/15 09:37, 50.07
2017/05/15 09:57, 50.07
2017/05/15 10:17, 50.08
2017/05/15 10:37, 50.14
2017/05/15 10:57, 48.57
2017/05/15 11:17, 47.20
2017/05/15 11:37, 46.85
2017/05/15 11:57, 46.76
2017/05/15 12:17, 46.66
2017/05/15 12:37, 46.97
2017/05/15 12:57, 46.58
2017/05/15 13:17, 46.82
2017/05/15 13:37, 46.72
2017/05/15 13:57, 46.78
2017/05/15 14:17, 47.27
2017/05/15 14:37, 47.56
2017/05/15 14:57, 47.29
2017/05/15 15:17, 47.83
2017/05/15 15:37, 47.67
2017/05/15 15:57, 47.74
2017/05/15 16:17, 47.80
2017/05/15 16:37, 48.12
2017/05/15 16:57, 48.22
2017/05/15 17:17, 48.13
2017/05/15 17:37, 48.29
2017/05/15 17:57, 49.38
2017/05/15 18:17, 49.47
2017/05/15 18:37, 49.61
2017/05/15 18:57, 49.61
2017/05/15 19:17, 49.66
2017/05/15 19:37, 49.37
2017/05/15 19:57, 49.71
2017/05/15 20:17, 49.74
2017/05/15 20:37, 49.57
2017/05/15 20:57, 49.39
2017/05/15 21:17, 49.54
2017/05/15 21:37, 49.45
2017/05/15 21:57, 49.46
2017/05/15 22:17, 49.66
2017/05/15 22:37, 49.43
2017/05/15 22:57, 49.50
2017/05/15 23:17, 49.68
2017/05/15 23:37, 49.64
2017/05/15 23:57, 50.05
2017/05/16 00:17, 50.05
2017/05/16 00:37, 50.03
2017/05/16 00:57, 50.04
2017/05/16 01:17, 50.04
2017/05/16 01:37, 50.03
2017/05/16 01:57, 50.03
2017/05/16 02:17, 50.04
2017/05/16 02:37, 50.03
2017/05/16 02:57, 50.04
2017/05/16 03:17, 50.04
2017/05/16 03:37, 50.05
2017/05/16 03:57, 50.06
2017/05/16 04:17, 50.05
2017/05/16 04:37, 50.03
2017/05/16 04:57, 50.04
2017/05/16 05:17, 50.04
2017/05/16 05:37, 50.05
2017/05/16 05:57, 50.04
2017/05/16 06:17, 50.04
2017/05/16 06:37, 50.04
2017/05/16 06:57, 50.05
2017/05/16 07:17, 50.04
2017/05/16 07:37, 50.05
2017/05/16 07:57, 50.05
2017/05/16 08:17, 50.03
2017/05/16 08:37, 50.06
2017/05/16 08:57, 50.06
2017/05/16 09:17, 50.06
2017/05/16 09:37, 50.06
2017/05/16 09:57, 50.06
2017/05/16 10:17, 50.07
2017/05/16 10:37, 50.06
2017/05/16 10:57, 50.06
2017/05/16 11:17, 50.07
2017/05/16 11:37, 50.06
2017/05/16 11:57, 50.08
2017/05/16 12:17, 50.07
2017/05/16 12:37, 50.08
2017/05/16 12:57, 50.10
2017/05/16 13:17, 46.54
2017/05/16 13:37, 46.75
2017/05/16 13:57, 49.96
2017/05/16 14:17, 46.44
2017/05/16 14:37, 49.58
2017/05/16 14:57, 48.04
2017/05/16 15:17, 49.84
2017/05/16 15:37, 47.87
2017/05/16 15:57, 49.28
2017/05/16 16:17, 48.04
2017/05/16 16:37, 47.63
2017/05/16 16:57, 47.57